カタログに戻る

STARLINK-36129

運用中通信VLEO
NORAD 66874·PAYLOAD·🇺🇸 United States

打ち上げ Dec 2, 2025 から Cape Canaveral Space Force Station

Loading…

次のパス (今後24時間)

TLE

最新Source: CelesTrak SupGP

元期: Sep 14, 2026, 23:04 UTC

1 66874C 25281AC  26257.96159722 -.00021950  00000+0 -79490-3 0  2579
2 66874  43.0030 354.5763 0001527 271.1971  31.1681 15.27594061    10

AllMySatでSTARLINK-36129をリアルタイム追跡

Download on the App Store